Time,TemperatureF,DewpointF,PressureIn,WindDirection,WindDirectionDegrees,WindSpeedMPH,WindSpeedGustMPH,Humidity,HourlyPrecipIn,Conditions,Clouds,dailyrainin,SoftwareType,DateUTC
2013-09-25 00:01:00,63.3,59.7,29.90,NE,55,0.0,1.0,88,0.00,,,0.00,Wunderground v.1.15,2013-09-25 04:01:00,
2013-09-25 00:02:00,63.3,59.7,29.90,NE,54,2.0,2.0,88,0.00,,,0.00,Wunderground v.1.15,2013-09-25 04:02:00,
2013-09-25 00:03:00,63.3,59.7,29.90,NE,54,0.0,2.0,88,0.00,,,0.00,Wunderground v.1.15,2013-09-25 04:03:00,
2013-09-25 00:06:00,63.3,59.7,29.90,NE,48,1.0,4.0,88,0.00,,,0.00,Wunderground v.1.15,2013-09-25 04:06:00,
2013-09-25 00:07:00,63.3,59.7,29.89,NE,48,0.0,4.0,88,0.00,,,0.00,Wunderground v.1.15,2013-09-25 04:07:00,
2013-09-25 00:12:00,63.3,60.0,29.89,ENE,59,0.0,1.0,89,0.00,,,0.00,Wunderground v.1.15,2013-09-25 04:12:00,
2013-09-25 00:17:00,63.3,60.0,29.89,ENE,57,0.0,1.0,89,0.00,,,0.00,Wunderground v.1.15,2013-09-25 04:17:00,
2013-09-25 00:23:00,63.3,60.0,29.89,NE,54,0.0,0.0,89,0.00,,,0.00,Wunderground v.1.15,2013-09-25 04:23:00,
2013-09-25 00:28:00,63.2,59.9,29.89,NE,50,0.0,6.0,89,0.00,,,0.00,Wunderground v.1.15,2013-09-25 04:28:00,
2013-09-25 00:33:00,63.2,59.9,29.89,ENE,78,0.0,4.0,89,0.00,,,0.00,Wunderground v.1.15,2013-09-25 04:33:00,
2013-09-25 00:38:00,63.2,59.9,29.89,NNE,32,8.0,8.0,89,0.00,,,0.00,Wunderground v.1.15,2013-09-25 04:38:00,
2013-09-25 00:43:00,63.2,59.9,29.89,NE,49,0.0,1.0,89,0.00,,,0.00,Wunderground v.1.15,2013-09-25 04:43:00,
2013-09-25 00:49:00,63.2,59.9,29.89,East,91,0.0,4.0,89,0.00,,,0.00,Wunderground v.1.15,2013-09-25 04:49:00,
2013-09-25 00:54:00,63.2,59.9,29.88,ESE,119,0.0,1.0,89,0.00,,,0.00,Wunderground v.1.15,2013-09-25 04:54:00,
2013-09-25 00:59:00,63.2,59.9,29.88,ESE,109,0.0,1.0,89,0.00,,,0.00,Wunderground v.1.15,2013-09-25 04:59:00,
2013-09-25 01:04:00,63.2,59.9,29.88,NE,45,0.0,2.0,89,0.00,,,0.00,Wunderground v.1.15,2013-09-25 05:04:00,
2013-09-25 01:10:00,63.1,59.8,29.88,ENE,61,0.0,1.0,89,0.00,,,0.00,Wunderground v.1.15,2013-09-25 05:10:00,
2013-09-25 01:15:00,63.1,59.8,29.88,East,101,0.0,1.0,89,0.00,,,0.00,Wunderground v.1.15,2013-09-25 05:15:00,
2013-09-25 01:20:00,63.1,59.8,29.88,ENE,63,1.0,1.0,89,0.00,,,0.00,Wunderground v.1.15,2013-09-25 05:20:00,
2013-09-25 01:25:00,63.0,59.7,29.88,East,82,1.0,2.0,89,0.00,,,0.00,Wunderground v.1.15,2013-09-25 05:25:00,
2013-09-25 01:30:00,63.0,60.0,29.87,ENE,78,0.0,0.0,90,0.00,,,0.00,Wunderground v.1.15,2013-09-25 05:30:00,
2013-09-25 01:35:00,62.9,59.9,29.87,SE,142,4.0,4.0,90,0.00,,,0.00,Wunderground v.1.15,2013-09-25 05:35:00,
2013-09-25 01:40:00,62.9,59.9,29.87,SE,125,4.0,4.0,90,0.00,,,0.00,Wunderground v.1.15,2013-09-25 05:40:00,
2013-09-25 01:45:00,62.8,59.8,29.87,ESE,109,0.0,5.0,90,0.00,,,0.01,Wunderground v.1.15,2013-09-25 05:45:00,
2013-09-25 01:50:00,62.8,59.8,29.87,ESE,108,0.0,1.0,90,0.44,,,0.04,Wunderground v.1.15,2013-09-25 05:50:00,
2013-09-25 01:55:00,62.7,59.7,29.87,ENE,77,0.0,1.0,90,0.23,,,0.06,Wunderground v.1.15,2013-09-25 05:55:00,
2013-09-25 02:00:00,62.5,59.5,29.87,East,100,2.0,2.0,90,0.41,,,0.09,Wunderground v.1.15,2013-09-25 06:00:00,
2013-09-25 02:05:00,62.4,59.7,29.87,East,97,0.0,4.0,91,0.55,,,0.13,Wunderground v.1.15,2013-09-25 06:05:00,
2013-09-25 02:10:00,62.2,59.5,29.88,NE,38,0.0,1.0,91,0.42,,,0.16,Wunderground v.1.15,2013-09-25 06:10:00,
2013-09-25 02:15:00,62.1,59.4,29.88,West,271,0.0,3.0,91,0.38,,,0.20,Wunderground v.1.15,2013-09-25 06:15:00,
2013-09-25 02:20:00,62.0,59.3,29.88,West,271,0.0,0.0,91,0.41,,,0.24,Wunderground v.1.15,2013-09-25 06:20:00,
2013-09-25 02:25:00,61.9,59.2,29.87,ENE,76,0.0,3.0,91,0.73,,,0.31,Wunderground v.1.15,2013-09-25 06:25:00,
2013-09-25 02:30:00,61.8,59.5,29.87,ENE,57,0.0,1.0,92,0.79,,,0.38,Wunderground v.1.15,2013-09-25 06:30:00,
2013-09-25 02:35:00,61.7,59.4,29.87,East,91,6.0,7.0,92,0.60,,,0.45,Wunderground v.1.15,2013-09-25 06:35:00,
2013-09-25 02:40:00,61.6,59.3,29.87,NE,55,3.0,3.0,92,0.63,,,0.51,Wunderground v.1.15,2013-09-25 06:40:00,
2013-09-25 02:45:00,61.5,59.2,29.87,SE,138,0.0,7.0,92,0.65,,,0.54,Wunderground v.1.15,2013-09-25 06:45:00,
2013-09-25 02:50:00,61.5,59.2,29.87,East,79,0.0,0.0,92,0.53,,,0.59,Wunderground v.1.15,2013-09-25 06:50:00,
2013-09-25 02:55:00,61.4,59.1,29.86,NE,53,0.0,6.0,92,0.44,,,0.64,Wunderground v.1.15,2013-09-25 06:55:00,
2013-09-25 03:00:00,61.4,59.1,29.86,East,83,3.0,3.0,92,0.23,,,0.68,Wunderground v.1.15,2013-09-25 07:00:00,
2013-09-25 03:05:00,61.3,59.0,29.86,ENE,60,0.0,5.0,92,0.15,,,0.69,Wunderground v.1.15,2013-09-25 07:05:00,
2013-09-25 03:10:00,61.3,59.0,29.85,NE,44,0.0,1.0,92,0.21,,,0.71,Wunderground v.1.15,2013-09-25 07:10:00,
2013-09-25 03:15:00,61.3,59.0,29.85,ENE,58,0.0,5.0,92,0.27,,,0.73,Wunderground v.1.15,2013-09-25 07:15:00,
2013-09-25 03:20:00,61.2,58.9,29.85,East,88,0.0,0.0,92,0.29,,,0.76,Wunderground v.1.15,2013-09-25 07:20:00,
2013-09-25 03:25:00,61.3,59.0,29.86,ENE,67,1.0,4.0,92,0.10,,,0.76,Wunderground v.1.15,2013-09-25 07:25:00,
2013-09-25 03:30:00,61.2,59.2,29.86,ENE,65,0.0,0.0,93,0.06,,,0.76,Wunderground v.1.15,2013-09-25 07:30:00,
2013-09-25 03:35:00,61.2,59.2,29.86,ENE,65,0.0,1.0,93,0.26,,,0.78,Wunderground v.1.15,2013-09-25 07:35:00,
2013-09-25 03:40:00,61.2,59.2,29.86,ENE,65,0.0,0.0,93,1.35,,,0.85,Wunderground v.1.15,2013-09-25 07:40:00,
2013-09-25 03:45:00,61.2,59.2,29.86,ENE,65,0.0,0.0,93,0.53,,,0.90,Wunderground v.1.15,2013-09-25 07:45:00,
2013-09-25 03:50:00,61.2,59.2,29.86,ENE,65,0.0,0.0,93,0.38,,,0.94,Wunderground v.1.15,2013-09-25 07:50:00,
2013-09-25 03:55:00,61.2,59.2,29.85,ENE,65,0.0,0.0,93,0.32,,,0.97,Wunderground v.1.15,2013-09-25 07:55:00,
2013-09-25 04:00:00,61.2,59.2,29.85,ENE,65,0.0,0.0,93,0.23,,,0.99,Wunderground v.1.15,2013-09-25 08:00:00,
2013-09-25 04:05:00,61.2,59.2,29.85,ENE,65,0.0,0.0,93,0.31,,,1.01,Wunderground v.1.15,2013-09-25 08:05:00,
2013-09-25 04:10:00,61.2,59.2,29.85,ENE,65,0.0,0.0,93,0.31,,,1.03,Wunderground v.1.15,2013-09-25 08:10:00,
2013-09-25 04:15:00,61.1,59.1,29.85,ENE,65,0.0,0.0,93,0.39,,,1.07,Wunderground v.1.15,2013-09-25 08:15:00,
2013-09-25 04:20:00,61.1,59.1,29.86,ENE,65,0.0,0.0,93,0.13,,,1.08,Wunderground v.1.15,2013-09-25 08:20:00,
2013-09-25 04:25:00,61.1,59.1,29.85,ENE,65,0.0,0.0,93,0.47,,,1.11,Wunderground v.1.15,2013-09-25 08:25:00,
2013-09-25 04:30:00,61.1,59.1,29.85,ENE,65,0.0,0.0,93,0.59,,,1.15,Wunderground v.1.15,2013-09-25 08:30:00,
2013-09-25 04:35:00,61.1,59.1,29.85,ENE,65,0.0,0.0,93,0.38,,,1.18,Wunderground v.1.15,2013-09-25 08:35:00,
2013-09-25 04:40:00,61.1,59.1,29.85,ENE,65,0.0,0.0,93,0.39,,,1.22,Wunderground v.1.15,2013-09-25 08:40:00,
2013-09-25 04:45:00,61.1,59.1,29.85,ENE,65,0.0,0.0,93,0.31,,,1.25,Wunderground v.1.15,2013-09-25 08:45:00,
2013-09-25 04:50:00,61.1,59.1,29.85,ENE,65,0.0,0.0,93,0.29,,,1.28,Wunderground v.1.15,2013-09-25 08:50:00,
2013-09-25 04:55:00,61.1,59.1,29.85,ENE,65,0.0,0.0,93,0.43,,,1.31,Wunderground v.1.15,2013-09-25 08:55:00,
2013-09-25 05:00:00,61.1,59.1,29.85,ENE,65,0.0,0.0,93,0.23,,,1.34,Wunderground v.1.15,2013-09-25 09:00:00,
2013-09-25 05:05:00,61.1,59.1,29.85,ENE,65,0.0,0.0,93,0.51,,,1.37,Wunderground v.1.15,2013-09-25 09:05:00,
2013-09-25 05:10:00,61.1,59.1,29.85,ENE,65,0.0,0.0,93,0.47,,,1.42,Wunderground v.1.15,2013-09-25 09:10:00,
2013-09-25 05:15:00,61.1,59.1,29.85,ENE,65,0.0,1.0,93,0.65,,,1.45,Wunderground v.1.15,2013-09-25 09:15:00,
2013-09-25 05:20:00,61.2,59.2,29.85,ENE,65,0.0,0.0,93,0.73,,,1.53,Wunderground v.1.15,2013-09-25 09:20:00,
2013-09-25 05:25:00,61.2,59.2,29.85,ENE,65,0.0,0.0,93,0.77,,,1.58,Wunderground v.1.15,2013-09-25 09:25:00,
2013-09-25 05:30:00,61.2,59.2,29.85,ENE,65,0.0,0.0,93,0.26,,,1.61,Wunderground v.1.15,2013-09-25 09:30:00,
2013-09-25 05:35:00,61.2,59.2,29.84,South,175,0.0,1.0,93,0.24,,,1.63,Wunderground v.1.15,2013-09-25 09:35:00,
2013-09-25 05:40:00,61.3,59.3,29.84,SSE,148,0.0,1.0,93,0.13,,,1.64,Wunderground v.1.15,2013-09-25 09:40:00,
2013-09-25 05:45:00,61.3,59.3,29.84,SSE,165,0.0,1.0,93,0.14,,,1.65,Wunderground v.1.15,2013-09-25 09:45:00,
2013-09-25 05:50:00,61.3,59.3,29.84,SE,136,0.0,0.0,93,0.06,,,1.65,Wunderground v.1.15,2013-09-25 09:50:00,
2013-09-25 05:55:00,61.3,59.3,29.84,SW,229,0.0,4.0,93,0.04,,,1.65,Wunderground v.1.15,2013-09-25 09:55:00,
2013-09-25 06:00:00,61.3,59.3,29.84,SSE,167,0.0,0.0,93,0.00,,,1.66,Wunderground v.1.15,2013-09-25 10:00:00,
2013-09-25 06:05:00,61.3,59.3,29.84,South,175,0.0,1.0,93,0.28,,,1.69,Wunderground v.1.15,2013-09-25 10:05:00,
2013-09-25 06:10:00,61.3,59.3,29.84,South,171,0.0,0.0,93,0.13,,,1.70,Wunderground v.1.15,2013-09-25 10:10:00,
2013-09-25 06:15:00,61.3,59.3,29.85,SE,140,0.0,2.0,93,0.44,,,1.73,Wunderground v.1.15,2013-09-25 10:15:00,
2013-09-25 06:20:00,61.2,59.2,29.85,SE,140,0.0,0.0,93,0.41,,,1.78,Wunderground v.1.15,2013-09-25 10:20:00,
2013-09-25 06:25:00,61.2,59.2,29.85,SE,139,0.0,0.0,93,0.73,,,1.82,Wunderground v.1.15,2013-09-25 10:25:00,
2013-09-25 06:30:00,61.2,59.2,29.85,SE,138,0.0,0.0,93,0.46,,,1.87,Wunderground v.1.15,2013-09-25 10:30:00,
2013-09-25 06:35:00,61.2,59.2,29.85,ESE,121,0.0,2.0,93,0.28,,,1.89,Wunderground v.1.15,2013-09-25 10:35:00,
2013-09-25 06:40:00,61.1,59.1,29.85,East,98,0.0,0.0,93,0.20,,,1.91,Wunderground v.1.15,2013-09-25 10:40:00,
2013-09-25 06:45:00,61.1,59.1,29.85,SSE,153,0.0,1.0,93,0.15,,,1.92,Wunderground v.1.15,2013-09-25 10:45:00,
2013-09-25 06:50:00,61.1,59.1,29.85,SSW,202,0.0,0.0,93,0.13,,,1.93,Wunderground v.1.15,2013-09-25 10:50:00,
2013-09-25 06:55:00,61.1,59.1,29.85,East,100,2.0,4.0,93,0.11,,,1.94,Wunderground v.1.15,2013-09-25 10:55:00,
2013-09-25 07:00:00,61.1,59.1,29.85,SE,133,2.0,2.0,93,0.11,,,1.95,Wunderground v.1.15,2013-09-25 11:00:00,
2013-09-25 07:05:00,61.1,59.1,29.85,ESE,119,0.0,2.0,93,0.09,,,1.96,Wunderground v.1.15,2013-09-25 11:05:00,
2013-09-25 07:10:00,61.1,59.1,29.85,East,93,0.0,0.0,93,0.15,,,1.97,Wunderground v.1.15,2013-09-25 11:10:00,
2013-09-25 07:15:00,61.1,59.1,29.84,SW,224,0.0,2.0,93,0.07,,,1.97,Wunderground v.1.15,2013-09-25 11:15:00,
2013-09-25 07:20:00,61.1,59.1,29.85,SE,126,0.0,0.0,93,0.05,,,1.98,Wunderground v.1.15,2013-09-25 11:20:00,
2013-09-25 07:25:00,61.1,59.1,29.85,ESE,119,0.0,5.0,93,0.05,,,1.98,Wunderground v.1.15,2013-09-25 11:25:00,
2013-09-25 07:30:00,61.1,59.1,29.84,SE,138,0.0,1.0,93,0.05,,,1.98,Wunderground v.1.15,2013-09-25 11:30:00,
2013-09-25 07:35:00,61.1,59.1,29.84,SE,126,0.0,6.0,93,0.04,,,1.98,Wunderground v.1.15,2013-09-25 11:35:00,
2013-09-25 07:40:00,61.0,59.0,29.84,SSE,164,0.0,0.0,93,0.00,,,1.98,Wunderground v.1.15,2013-09-25 11:40:00,
2013-09-25 07:45:00,61.1,59.1,29.84,ESE,105,0.0,5.0,93,0.00,,,1.98,Wunderground v.1.15,2013-09-25 11:45:00,
2013-09-25 07:50:00,61.1,59.1,29.85,ESE,121,0.0,0.0,93,0.00,,,1.98,Wunderground v.1.15,2013-09-25 11:50:00,
2013-09-25 07:55:00,61.1,59.1,29.85,NE,47,0.0,2.0,93,0.00,,,1.99,Wunderground v.1.15,2013-09-25 11:55:00,
2013-09-25 08:00:00,61.1,59.1,29.85,ESE,120,0.0,0.0,93,0.00,,,1.99,Wunderground v.1.15,2013-09-25 12:00:00,
2013-09-25 08:05:00,61.1,59.1,29.85,ENE,75,0.0,4.0,93,0.05,,,2.00,Wunderground v.1.15,2013-09-25 12:05:00,
2013-09-25 08:10:00,61.2,59.2,29.85,SE,143,0.0,1.0,93,0.11,,,2.01,Wunderground v.1.15,2013-09-25 12:10:00,
2013-09-25 08:15:00,61.2,59.2,29.85,ESE,110,0.0,4.0,93,0.19,,,2.02,Wunderground v.1.15,2013-09-25 12:15:00,
2013-09-25 08:20:00,61.2,59.2,29.85,ESE,118,5.0,5.0,93,0.13,,,2.03,Wunderground v.1.15,2013-09-25 12:20:00,
2013-09-25 08:25:00,61.2,59.2,29.85,East,84,0.0,5.0,93,0.08,,,2.03,Wunderground v.1.15,2013-09-25 12:25:00,
2013-09-25 08:27:00,61.2,59.2,29.85,NE,55,3.0,5.0,93,0.06,,,2.03,Wunderground v.1.15,2013-09-25 12:27:00,
2013-09-25 08:32:00,61.2,59.2,29.85,SSE,149,0.0,5.0,93,0.17,,,2.05,Wunderground v.1.15,2013-09-25 12:32:00,
2013-09-25 08:37:00,61.2,59.2,29.85,East,83,0.0,5.0,93,0.13,,,2.06,Wunderground v.1.15,2013-09-25 12:37:00,
2013-09-25 08:42:00,61.2,59.2,29.85,East,81,0.0,3.0,93,0.27,,,2.08,Wunderground v.1.15,2013-09-25 12:42:00,
2013-09-25 08:47:00,61.2,59.2,29.85,NE,50,0.0,4.0,93,0.12,,,2.09,Wunderground v.1.15,2013-09-25 12:47:00,
2013-09-25 08:52:00,61.2,59.2,29.85,East,82,0.0,3.0,93,0.06,,,2.09,Wunderground v.1.15,2013-09-25 12:52:00,
2013-09-25 08:57:00,61.2,59.2,29.85,ENE,60,0.0,5.0,93,0.04,,,2.09,Wunderground v.1.15,2013-09-25 12:57:00,
2013-09-25 09:02:00,61.3,59.3,29.85,NE,46,2.0,4.0,93,0.00,,,2.09,Wunderground v.1.15,2013-09-25 13:02:00,
2013-09-25 09:07:00,61.3,59.3,29.85,East,83,0.0,4.0,93,0.00,,,2.09,Wunderground v.1.15,2013-09-25 13:07:00,
2013-09-25 09:12:00,61.3,59.3,29.85,ENE,78,0.0,1.0,93,0.00,,,2.09,Wunderground v.1.15,2013-09-25 13:12:00,
2013-09-25 09:17:00,61.5,59.5,29.86,NE,51,0.0,1.0,93,0.00,,,2.10,Wunderground v.1.15,2013-09-25 13:17:00,
2013-09-25 09:22:00,61.5,59.5,29.86,ESE,119,0.0,0.0,93,0.07,,,2.11,Wunderground v.1.15,2013-09-25 13:22:00,
2013-09-25 09:27:00,61.5,59.5,29.86,East,97,0.0,2.0,93,0.07,,,2.11,Wunderground v.1.15,2013-09-25 13:27:00,
2013-09-25 09:32:00,61.6,59.6,29.86,East,91,0.0,0.0,93,0.07,,,2.12,Wunderground v.1.15,2013-09-25 13:32:00,
2013-09-25 09:37:00,61.6,59.6,29.86,East,99,0.0,5.0,93,0.07,,,2.12,Wunderground v.1.15,2013-09-25 13:37:00,
2013-09-25 09:42:00,61.6,59.6,29.85,East,85,0.0,5.0,93,0.05,,,2.12,Wunderground v.1.15,2013-09-25 13:42:00,
2013-09-25 09:47:00,61.7,59.7,29.85,East,96,4.0,5.0,93,0.00,,,2.12,Wunderground v.1.15,2013-09-25 13:47:00,
2013-09-25 09:52:00,61.8,59.8,29.85,SE,131,0.0,7.0,93,0.00,,,2.13,Wunderground v.1.15,2013-09-25 13:52:00,
2013-09-25 09:57:00,61.8,59.8,29.86,NE,45,4.0,7.0,93,0.00,,,2.13,Wunderground v.1.15,2013-09-25 13:57:00,
2013-09-25 10:02:00,61.8,59.8,29.86,East,88,0.0,6.0,93,0.00,,,2.13,Wunderground v.1.15,2013-09-25 14:02:00,
2013-09-25 10:07:00,61.7,59.7,29.86,East,80,0.0,8.0,93,0.00,,,2.13,Wunderground v.1.15,2013-09-25 14:07:00,
2013-09-25 10:12:00,61.7,59.7,29.86,South,182,0.0,4.0,93,0.00,,,2.13,Wunderground v.1.15,2013-09-25 14:12:00,
2013-09-25 10:17:00,61.8,59.8,29.86,East,94,0.0,4.0,93,0.00,,,2.13,Wunderground v.1.15,2013-09-25 14:17:00,
2013-09-25 10:22:00,62.0,60.0,29.86,West,269,0.0,4.0,93,0.00,,,2.13,Wunderground v.1.15,2013-09-25 14:22:00,
2013-09-25 10:27:00,62.1,60.1,29.86,NNW,327,0.0,4.0,93,0.00,,,2.13,Wunderground v.1.15,2013-09-25 14:27:00,
2013-09-25 10:32:00,62.2,60.2,29.86,NNW,340,3.0,3.0,93,0.00,,,2.13,Wunderground v.1.15,2013-09-25 14:32:00,
2013-09-25 10:37:00,62.1,60.1,29.87,ENE,57,1.0,4.0,93,0.00,,,2.13,Wunderground v.1.15,2013-09-25 14:37:00,
2013-09-25 10:42:00,62.1,60.1,29.86,East,94,1.0,4.0,93,0.00,,,2.13,Wunderground v.1.15,2013-09-25 14:42:00,
2013-09-25 10:47:00,62.0,60.0,29.86,East,84,4.0,5.0,93,0.00,,,2.13,Wunderground v.1.15,2013-09-25 14:47:00,
2013-09-25 10:52:00,61.8,59.8,29.86,ESE,112,5.0,7.0,93,0.00,,,2.14,Wunderground v.1.15,2013-09-25 14:52:00,
2013-09-25 10:57:00,61.7,59.7,29.86,ESE,117,0.0,7.0,93,0.10,,,2.15,Wunderground v.1.15,2013-09-25 14:57:00,
2013-09-25 11:02:00,61.7,59.7,29.86,ESE,110,0.0,1.0,93,0.07,,,2.15,Wunderground v.1.15,2013-09-25 15:02:00,
2013-09-25 11:07:00,61.9,59.9,29.86,ENE,77,0.0,5.0,93,0.04,,,2.15,Wunderground v.1.15,2013-09-25 15:07:00,
2013-09-25 11:12:00,62.2,60.2,29.86,ENE,75,5.0,7.0,93,0.00,,,2.15,Wunderground v.1.15,2013-09-25 15:12:00,
2013-09-25 11:17:00,62.5,60.4,29.86,East,84,4.0,8.0,93,0.00,,,2.15,Wunderground v.1.15,2013-09-25 15:17:00,
2013-09-25 11:22:00,62.6,60.5,29.86,SSE,159,5.0,13.0,93,0.00,,,2.15,Wunderground v.1.15,2013-09-25 15:22:00,
2013-09-25 11:27:00,62.7,60.3,29.87,ENE,74,0.0,13.0,92,0.00,,,2.15,Wunderground v.1.15,2013-09-25 15:27:00,
2013-09-25 11:32:00,62.6,60.2,29.86,East,101,0.0,6.0,92,0.00,,,2.15,Wunderground v.1.15,2013-09-25 15:32:00,
2013-09-25 11:37:00,62.7,60.3,29.86,East,81,0.0,6.0,92,0.00,,,2.15,Wunderground v.1.15,2013-09-25 15:37:00,
2013-09-25 11:42:00,63.0,60.6,29.86,NE,48,2.0,6.0,92,0.00,,,2.15,Wunderground v.1.15,2013-09-25 15:42:00,
2013-09-25 11:47:00,63.3,60.9,29.86,ENE,76,0.0,6.0,92,0.00,,,2.15,Wunderground v.1.15,2013-09-25 15:47:00,
2013-09-25 11:52:00,63.6,61.2,29.86,North,5,2.0,5.0,92,0.00,,,2.15,Wunderground v.1.15,2013-09-25 15:52:00,
2013-09-25 11:57:00,64.0,61.6,29.86,ENE,59,0.0,5.0,92,0.00,,,2.15,Wunderground v.1.15,2013-09-25 15:57:00,
2013-09-25 12:02:00,64.3,61.9,29.86,SE,130,0.0,5.0,92,0.00,,,2.15,Wunderground v.1.15,2013-09-25 16:02:00,
2013-09-25 12:07:00,64.5,61.8,29.85,South,180,0.0,6.0,91,0.00,,,2.15,Wunderground v.1.15,2013-09-25 16:07:00,
2013-09-25 12:12:00,64.8,62.1,29.85,ESE,103,0.0,1.0,91,0.00,,,2.15,Wunderground v.1.15,2013-09-25 16:12:00,
2013-09-25 12:17:00,65.2,62.5,29.85,ESE,114,0.0,5.0,91,0.00,,,2.15,Wunderground v.1.15,2013-09-25 16:17:00,
2013-09-25 12:22:00,65.5,62.5,29.85,East,89,0.0,2.0,90,0.00,,,2.15,Wunderground v.1.15,2013-09-25 16:22:00,
2013-09-25 12:27:00,65.5,62.2,29.85,NE,45,1.0,5.0,89,0.00,,,2.15,Wunderground v.1.15,2013-09-25 16:27:00,
2013-09-25 12:32:00,65.5,62.2,29.85,NE,46,3.0,4.0,89,0.00,,,2.15,Wunderground v.1.15,2013-09-25 16:32:00,
2013-09-25 12:37:00,65.4,62.1,29.85,NE,54,0.0,5.0,89,0.00,,,2.15,Wunderground v.1.15,2013-09-25 16:37:00,
2013-09-25 12:42:00,65.7,62.0,29.85,ENE,65,0.0,5.0,88,0.00,,,2.15,Wunderground v.1.15,2013-09-25 16:42:00,
2013-09-25 12:47:00,65.9,62.2,29.85,East,96,2.0,5.0,88,0.00,,,2.15,Wunderground v.1.15,2013-09-25 16:47:00,
2013-09-25 12:52:00,65.7,61.4,29.85,WNW,296,0.0,4.0,86,0.00,,,2.15,Wunderground v.1.15,2013-09-25 16:52:00,
2013-09-25 12:57:00,65.6,61.3,29.85,ENE,78,2.0,7.0,86,0.00,,,2.15,Wunderground v.1.15,2013-09-25 16:57:00,
2013-09-25 13:02:00,65.3,60.7,29.85,East,101,0.0,5.0,85,0.00,,,2.15,Wunderground v.1.15,2013-09-25 17:02:00,
2013-09-25 13:07:00,65.4,61.4,29.85,NE,44,0.0,7.0,87,0.00,,,2.15,Wunderground v.1.15,2013-09-25 17:07:00,
2013-09-25 13:13:00,65.0,60.7,29.85,ENE,69,0.0,3.0,86,0.00,,,2.15,Wunderground v.1.15,2013-09-25 17:13:00,
2013-09-25 13:18:00,64.7,60.4,29.85,NE,55,5.0,6.0,86,0.00,,,2.15,Wunderground v.1.15,2013-09-25 17:18:00,
2013-09-25 13:23:00,64.5,60.2,29.84,East,80,0.0,7.0,86,0.00,,,2.15,Wunderground v.1.15,2013-09-25 17:23:00,
2013-09-25 13:28:00,64.5,60.5,29.84,SE,144,0.0,7.0,87,0.00,,,2.15,Wunderground v.1.15,2013-09-25 17:28:00,
2013-09-25 13:33:00,64.5,60.9,29.84,East,84,3.0,3.0,88,0.00,,,2.15,Wunderground v.1.15,2013-09-25 17:33:00,
2013-09-25 13:38:00,64.5,60.9,29.84,East,90,5.0,5.0,88,0.00,,,2.15,Wunderground v.1.15,2013-09-25 17:38:00,
2013-09-25 13:43:00,64.4,60.4,29.84,ESE,111,0.0,5.0,87,0.00,,,2.15,Wunderground v.1.15,2013-09-25 17:43:00,
2013-09-25 13:48:00,64.3,60.3,29.84,ESE,115,0.0,5.0,87,0.00,,,2.15,Wunderground v.1.15,2013-09-25 17:48:00,
2013-09-25 13:53:00,64.3,60.3,29.84,SE,125,2.0,6.0,87,0.00,,,2.15,Wunderground v.1.15,2013-09-25 17:53:00,
2013-09-25 13:58:00,64.0,59.7,29.84,ENE,73,0.0,6.0,86,0.00,,,2.15,Wunderground v.1.15,2013-09-25 17:58:00,
2013-09-25 14:03:00,63.9,59.6,29.84,ENE,78,0.0,2.0,86,0.00,,,2.15,Wunderground v.1.15,2013-09-25 18:03:00,
2013-09-25 14:08:00,63.7,59.8,29.84,ESE,102,2.0,5.0,87,0.00,,,2.15,Wunderground v.1.15,2013-09-25 18:08:00,
2013-09-25 14:13:00,63.6,59.7,29.83,East,95,0.0,2.0,87,0.00,,,2.15,Wunderground v.1.15,2013-09-25 18:13:00,
2013-09-25 14:18:00,63.6,60.0,29.83,East,81,0.0,3.0,88,0.00,,,2.15,Wunderground v.1.15,2013-09-25 18:18:00,
2013-09-25 14:23:00,63.5,59.9,29.83,ESE,109,1.0,6.0,88,0.00,,,2.15,Wunderground v.1.15,2013-09-25 18:23:00,
2013-09-25 14:27:00,63.6,60.0,29.83,East,98,0.0,6.0,88,0.00,,,2.15,Wunderground v.1.15,2013-09-25 18:27:00,
2013-09-25 14:32:00,63.6,60.0,29.83,SE,140,0.0,6.0,88,0.00,,,2.15,Wunderground v.1.15,2013-09-25 18:32:00,
2013-09-25 14:38:00,63.6,60.0,29.83,ENE,65,0.0,6.0,88,0.00,,,2.15,Wunderground v.1.15,2013-09-25 18:38:00,
2013-09-25 14:43:00,63.6,60.0,29.83,ENE,63,6.0,12.0,88,0.00,,,2.15,Wunderground v.1.15,2013-09-25 18:43:00,
2013-09-25 14:48:00,63.6,60.0,29.82,ESE,107,0.0,12.0,88,0.00,,,2.15,Wunderground v.1.15,2013-09-25 18:48:00,
2013-09-25 14:53:00,63.7,60.1,29.83,ESE,115,0.0,7.0,88,0.00,,,2.15,Wunderground v.1.15,2013-09-25 18:53:00,
2013-09-25 14:58:00,63.9,60.3,29.82,SE,136,0.0,7.0,88,0.00,,,2.15,Wunderground v.1.15,2013-09-25 18:58:00,
2013-09-25 15:03:00,64.1,60.5,29.82,ESE,108,0.0,6.0,88,0.00,,,2.15,Wunderground v.1.15,2013-09-25 19:03:00,
2013-09-25 15:08:00,64.2,60.6,29.82,East,98,1.0,6.0,88,0.00,,,2.15,Wunderground v.1.15,2013-09-25 19:08:00,
2013-09-25 15:13:00,64.2,60.2,29.82,ENE,74,1.0,4.0,87,0.00,,,2.15,Wunderground v.1.15,2013-09-25 19:13:00,
2013-09-25 15:18:00,64.3,60.7,29.82,ENE,65,0.0,5.0,88,0.00,,,2.15,Wunderground v.1.15,2013-09-25 19:18:00,
2013-09-25 15:23:00,64.2,60.2,29.82,ENE,67,1.0,4.0,87,0.00,,,2.15,Wunderground v.1.15,2013-09-25 19:23:00,
2013-09-25 15:28:00,64.0,60.1,29.82,SSE,148,0.0,5.0,87,0.00,,,2.15,Wunderground v.1.15,2013-09-25 19:28:00,
2013-09-25 15:33:00,64.0,60.4,29.82,SSE,154,0.0,5.0,88,0.00,,,2.15,Wunderground v.1.15,2013-09-25 19:33:00,
2013-09-25 15:38:00,64.0,60.4,29.82,East,80,3.0,10.0,88,0.00,,,2.15,Wunderground v.1.15,2013-09-25 19:38:00,
2013-09-25 15:43:00,63.9,60.3,29.82,NE,42,0.0,4.0,88,0.00,,,2.15,Wunderground v.1.15,2013-09-25 19:43:00,
2013-09-25 15:48:00,64.0,60.7,29.82,ESE,107,0.0,6.0,89,0.00,,,2.15,Wunderground v.1.15,2013-09-25 19:48:00,
2013-09-25 15:53:00,64.0,60.7,29.81,ESE,105,2.0,2.0,89,0.00,,,2.15,Wunderground v.1.15,2013-09-25 19:53:00,
2013-09-25 15:58:00,64.0,60.7,29.81,East,84,0.0,5.0,89,0.00,,,2.15,Wunderground v.1.15,2013-09-25 19:58:00,
2013-09-25 16:03:00,64.0,60.7,29.81,SE,128,0.0,6.0,89,0.00,,,2.15,Wunderground v.1.15,2013-09-25 20:03:00,
2013-09-25 16:08:00,64.0,60.7,29.82,East,92,0.0,6.0,89,0.00,,,2.15,Wunderground v.1.15,2013-09-25 20:08:00,
2013-09-25 16:13:00,64.0,60.7,29.82,ENE,74,4.0,4.0,89,0.00,,,2.15,Wunderground v.1.15,2013-09-25 20:13:00,
2013-09-25 16:18:00,63.8,60.2,29.82,ESE,116,2.0,8.0,88,0.00,,,2.15,Wunderground v.1.15,2013-09-25 20:18:00,
2013-09-25 16:23:00,63.7,60.4,29.82,NE,55,0.0,4.0,89,0.00,,,2.15,Wunderground v.1.15,2013-09-25 20:23:00,
2013-09-25 16:28:00,63.6,60.3,29.82,East,79,0.0,4.0,89,0.00,,,2.15,Wunderground v.1.15,2013-09-25 20:28:00,
2013-09-25 16:33:00,63.6,60.3,29.82,ENE,78,0.0,2.0,89,0.00,,,2.15,Wunderground v.1.15,2013-09-25 20:33:00,
2013-09-25 16:38:00,63.6,60.3,29.82,ESE,113,0.0,4.0,89,0.00,,,2.15,Wunderground v.1.15,2013-09-25 20:38:00,
2013-09-25 16:43:00,63.6,60.3,29.82,ESE,113,0.0,8.0,89,0.00,,,2.15,Wunderground v.1.15,2013-09-25 20:43:00,
2013-09-25 16:48:00,63.7,60.4,29.82,East,85,0.0,8.0,89,0.00,,,2.15,Wunderground v.1.15,2013-09-25 20:48:00,
2013-09-25 16:53:00,63.6,60.3,29.82,East,93,1.0,3.0,89,0.00,,,2.15,Wunderground v.1.15,2013-09-25 20:53:00,
2013-09-25 16:58:00,63.8,60.5,29.81,ESE,105,0.0,4.0,89,0.00,,,2.15,Wunderground v.1.15,2013-09-25 20:58:00,
2013-09-25 17:03:00,63.9,60.6,29.81,SSE,148,1.0,5.0,89,0.00,,,2.15,Wunderground v.1.15,2013-09-25 21:03:00,
2013-09-25 17:08:00,64.1,60.8,29.82,SSE,162,0.0,6.0,89,0.00,,,2.15,Wunderground v.1.15,2013-09-25 21:08:00,
2013-09-25 17:13:00,64.1,60.5,29.82,SSE,159,0.0,4.0,88,0.00,,,2.15,Wunderground v.1.15,2013-09-25 21:13:00,
2013-09-25 17:18:00,64.1,60.5,29.82,SE,128,0.0,4.0,88,0.00,,,2.15,Wunderground v.1.15,2013-09-25 21:18:00,
2013-09-25 17:23:00,64.2,60.6,29.82,SE,131,0.0,1.0,88,0.00,,,2.15,Wunderground v.1.15,2013-09-25 21:23:00,
2013-09-25 17:28:00,64.2,60.6,29.82,SSE,150,0.0,2.0,88,0.00,,,2.15,Wunderground v.1.15,2013-09-25 21:28:00,
2013-09-25 17:33:00,64.1,60.5,29.82,ESE,115,0.0,1.0,88,0.00,,,2.15,Wunderground v.1.15,2013-09-25 21:33:00,
2013-09-25 17:38:00,63.9,60.3,29.82,ENE,69,0.0,3.0,88,0.00,,,2.15,Wunderground v.1.15,2013-09-25 21:38:00,
2013-09-25 17:43:00,63.8,60.2,29.82,ENE,69,0.0,1.0,88,0.00,,,2.15,Wunderground v.1.15,2013-09-25 21:43:00,
2013-09-25 17:48:00,63.7,60.1,29.82,SE,126,0.0,1.0,88,0.00,,,2.15,Wunderground v.1.15,2013-09-25 21:48:00,
2013-09-25 17:53:00,63.7,60.4,29.82,SE,126,0.0,1.0,89,0.00,,,2.15,Wunderground v.1.15,2013-09-25 21:53:00,
2013-09-25 17:58:00,63.7,60.4,29.82,SE,138,4.0,5.0,89,0.00,,,2.15,Wunderground v.1.15,2013-09-25 21:58:00,
2013-09-25 18:03:00,63.8,60.5,29.82,SE,139,0.0,0.0,89,0.00,,,2.15,Wunderground v.1.15,2013-09-25 22:03:00,
2013-09-25 18:08:00,63.8,60.5,29.82,ESE,117,0.0,5.0,89,0.00,,,2.15,Wunderground v.1.15,2013-09-25 22:08:00,
2013-09-25 18:13:00,63.7,60.1,29.83,East,96,0.0,1.0,88,0.00,,,2.15,Wunderground v.1.15,2013-09-25 22:13:00,
2013-09-25 18:18:00,63.8,60.5,29.83,East,96,0.0,1.0,89,0.00,,,2.15,Wunderground v.1.15,2013-09-25 22:18:00,
2013-09-25 18:23:00,63.8,60.5,29.83,SE,145,2.0,4.0,89,0.00,,,2.15,Wunderground v.1.15,2013-09-25 22:23:00,
2013-09-25 18:28:00,63.8,60.5,29.82,SE,126,2.0,4.0,89,0.00,,,2.15,Wunderground v.1.15,2013-09-25 22:28:00,
2013-09-25 18:33:00,63.6,60.3,29.83,East,98,2.0,2.0,89,0.00,,,2.15,Wunderground v.1.15,2013-09-25 22:33:00,
2013-09-25 18:38:00,63.5,59.9,29.83,East,85,0.0,2.0,88,0.00,,,2.15,Wunderground v.1.15,2013-09-25 22:38:00,
2013-09-25 18:43:00,63.5,60.2,29.83,East,85,0.0,0.0,89,0.00,,,2.15,Wunderground v.1.15,2013-09-25 22:43:00,
2013-09-25 18:48:00,63.4,60.1,29.83,ESE,119,0.0,1.0,89,0.00,,,2.15,Wunderground v.1.15,2013-09-25 22:48:00,
2013-09-25 18:53:00,63.3,60.3,29.83,ESE,119,0.0,0.0,90,0.00,,,2.15,Wunderground v.1.15,2013-09-25 22:53:00,
2013-09-25 18:58:00,63.3,60.3,29.84,ESE,121,0.0,1.0,90,0.00,,,2.15,Wunderground v.1.15,2013-09-25 22:58:00,
2013-09-25 19:03:00,63.2,60.2,29.84,ESE,121,0.0,0.0,90,0.00,,,2.15,Wunderground v.1.15,2013-09-25 23:03:00,
2013-09-25 19:08:00,63.1,60.1,29.84,ESE,121,0.0,0.0,90,0.00,,,2.15,Wunderground v.1.15,2013-09-25 23:08:00,
2013-09-25 19:13:00,63.0,60.0,29.84,ESE,121,0.0,0.0,90,0.00,,,2.15,Wunderground v.1.15,2013-09-25 23:13:00,
2013-09-25 19:18:00,62.9,59.9,29.84,ESE,121,0.0,1.0,90,0.00,,,2.15,Wunderground v.1.15,2013-09-25 23:18:00,
2013-09-25 19:23:00,62.8,59.8,29.84,ESE,103,0.0,4.0,90,0.00,,,2.15,Wunderground v.1.15,2013-09-25 23:23:00,
2013-09-25 19:28:00,62.7,59.7,29.84,ENE,76,0.0,4.0,90,0.00,,,2.15,Wunderground v.1.15,2013-09-25 23:28:00,
2013-09-25 19:33:00,62.6,60.2,29.84,ENE,78,0.0,1.0,92,0.00,,,2.15,Wunderground v.1.15,2013-09-25 23:33:00,
2013-09-25 19:38:00,62.6,59.6,29.84,ENE,75,0.0,1.0,90,0.00,,,2.15,Wunderground v.1.15,2013-09-25 23:38:00,
2013-09-25 19:43:00,62.5,59.8,29.84,ENE,75,0.0,1.0,91,0.00,,,2.15,Wunderground v.1.15,2013-09-25 23:43:00,
2013-09-25 19:48:00,62.5,59.8,29.84,ENE,75,0.0,1.0,91,0.00,,,2.16,Wunderground v.1.15,2013-09-25 23:48:00,
2013-09-25 19:53:00,62.4,59.7,29.84,SE,134,0.0,0.0,91,0.00,,,2.16,Wunderground v.1.15,2013-09-25 23:53:00,
2013-09-25 19:58:00,62.3,59.6,29.84,SE,137,0.0,1.0,91,0.00,,,2.16,Wunderground v.1.15,2013-09-25 23:58:00,
2013-09-25 20:03:00,62.2,59.5,29.84,SE,137,0.0,1.0,91,0.00,,,2.16,Wunderground v.1.15,2013-09-26 00:03:00,
2013-09-25 20:08:00,62.1,59.4,29.84,SE,137,0.0,1.0,91,0.00,,,2.16,Wunderground v.1.15,2013-09-26 00:08:00,
2013-09-25 20:13:00,62.0,59.3,29.84,SE,137,0.0,0.0,91,0.00,,,2.16,Wunderground v.1.15,2013-09-26 00:13:00,
2013-09-25 20:18:00,61.9,59.2,29.85,SSE,161,0.0,1.0,91,0.00,,,2.16,Wunderground v.1.15,2013-09-26 00:18:00,
2013-09-25 20:23:00,61.9,59.5,29.85,ENE,69,0.0,1.0,92,0.00,,,2.16,Wunderground v.1.15,2013-09-26 00:23:00,
2013-09-25 20:28:00,61.8,59.5,29.85,SSE,159,4.0,5.0,92,0.00,,,2.17,Wunderground v.1.15,2013-09-26 00:28:00,
2013-09-25 20:33:00,61.7,59.4,29.85,East,82,0.0,0.0,92,0.00,,,2.17,Wunderground v.1.15,2013-09-26 00:33:00,
2013-09-25 20:38:00,61.7,59.4,29.85,East,82,0.0,1.0,92,0.00,,,2.17,Wunderground v.1.15,2013-09-26 00:38:00,
2013-09-25 20:43:00,61.7,59.4,29.85,East,82,0.0,0.0,92,0.00,,,2.17,Wunderground v.1.15,2013-09-26 00:43:00,
2013-09-25 20:48:00,61.7,59.4,29.85,East,82,0.0,1.0,92,0.00,,,2.17,Wunderground v.1.15,2013-09-26 00:48:00,
2013-09-25 20:53:00,61.6,59.3,29.85,East,82,0.0,0.0,92,0.00,,,2.17,Wunderground v.1.15,2013-09-26 00:53:00,
2013-09-25 20:58:00,61.6,59.3,29.86,East,82,0.0,0.0,92,0.00,,,2.17,Wunderground v.1.15,2013-09-26 00:58:00,
2013-09-25 21:03:00,61.6,59.3,29.86,ESE,111,0.0,4.0,92,0.00,,,2.17,Wunderground v.1.15,2013-09-26 01:03:00,
2013-09-25 21:08:00,61.5,59.2,29.86,ESE,102,0.0,4.0,92,0.00,,,2.17,Wunderground v.1.15,2013-09-26 01:08:00,
2013-09-25 21:13:00,61.4,59.1,29.85,ESE,102,0.0,1.0,92,0.00,,,2.17,Wunderground v.1.15,2013-09-26 01:13:00,
2013-09-25 21:18:00,61.4,59.1,29.86,SE,134,0.0,2.0,92,0.00,,,2.17,Wunderground v.1.15,2013-09-26 01:18:00,
2013-09-25 21:23:00,61.4,59.1,29.86,SSW,203,0.0,1.0,92,0.00,,,2.17,Wunderground v.1.15,2013-09-26 01:23:00,
2013-09-25 21:28:00,61.3,59.0,29.86,ESE,123,0.0,4.0,92,0.00,,,2.17,Wunderground v.1.15,2013-09-26 01:28:00,
2013-09-25 21:33:00,61.2,58.9,29.86,SE,126,0.0,1.0,92,0.00,,,2.17,Wunderground v.1.15,2013-09-26 01:33:00,
2013-09-25 21:38:00,61.1,58.8,29.86,SE,136,0.0,5.0,92,0.00,,,2.17,Wunderground v.1.15,2013-09-26 01:38:00,
2013-09-25 21:43:00,61.1,58.8,29.86,ESE,123,0.0,5.0,92,0.00,,,2.17,Wunderground v.1.15,2013-09-26 01:43:00,
2013-09-25 21:48:00,61.0,58.7,29.86,ESE,105,0.0,5.0,92,0.00,,,2.17,Wunderground v.1.15,2013-09-26 01:48:00,
2013-09-25 21:53:00,61.0,58.7,29.86,SE,126,0.0,2.0,92,0.00,,,2.17,Wunderground v.1.15,2013-09-26 01:53:00,
2013-09-25 21:58:00,61.0,58.7,29.86,SE,125,0.0,2.0,92,0.00,,,2.17,Wunderground v.1.15,2013-09-26 01:58:00,
2013-09-25 22:03:00,60.9,58.6,29.87,ENE,69,0.0,3.0,92,0.00,,,2.17,Wunderground v.1.15,2013-09-26 02:03:00,
2013-09-25 22:08:00,60.9,58.6,29.87,SSE,148,0.0,5.0,92,0.00,,,2.17,Wunderground v.1.15,2013-09-26 02:08:00,
2013-09-25 22:13:00,60.9,58.6,29.87,SSE,148,0.0,0.0,92,0.00,,,2.17,Wunderground v.1.15,2013-09-26 02:13:00,
2013-09-25 22:18:00,60.8,58.5,29.87,SE,134,0.0,6.0,92,0.00,,,2.17,Wunderground v.1.15,2013-09-26 02:18:00,
2013-09-25 22:23:00,60.8,58.5,29.86,SE,124,0.0,4.0,92,0.00,,,2.17,Wunderground v.1.15,2013-09-26 02:23:00,
2013-09-25 22:28:00,60.7,58.4,29.86,ESE,115,0.0,4.0,92,0.00,,,2.17,Wunderground v.1.15,2013-09-26 02:28:00,
2013-09-25 22:33:00,60.7,58.4,29.86,ESE,107,0.0,4.0,92,0.00,,,2.17,Wunderground v.1.15,2013-09-26 02:33:00,
2013-09-25 22:38:00,60.7,58.4,29.86,ESE,117,0.0,4.0,92,0.00,,,2.17,Wunderground v.1.15,2013-09-26 02:38:00,
2013-09-25 22:43:00,60.6,58.3,29.86,ESE,118,0.0,1.0,92,0.00,,,2.17,Wunderground v.1.15,2013-09-26 02:43:00,
2013-09-25 22:48:00,60.6,58.3,29.87,ESE,118,0.0,1.0,92,0.00,,,2.17,Wunderground v.1.15,2013-09-26 02:48:00,
2013-09-25 22:53:00,60.5,58.2,29.87,ENE,74,0.0,1.0,92,0.00,,,2.17,Wunderground v.1.15,2013-09-26 02:53:00,
2013-09-25 22:58:00,60.5,58.2,29.87,East,88,0.0,1.0,92,0.00,,,2.18,Wunderground v.1.15,2013-09-26 02:58:00,
2013-09-25 23:03:00,60.5,58.2,29.87,SSE,160,2.0,2.0,92,0.00,,,2.18,Wunderground v.1.15,2013-09-26 03:03:00,
2013-09-25 23:08:00,60.4,58.1,29.87,East,90,4.0,5.0,92,0.00,,,2.18,Wunderground v.1.15,2013-09-26 03:08:00,
2013-09-25 23:13:00,60.3,58.0,29.87,ESE,109,0.0,1.0,92,0.00,,,2.18,Wunderground v.1.15,2013-09-26 03:13:00,
2013-09-25 23:18:00,60.3,58.0,29.87,SSE,153,0.0,1.0,92,0.00,,,2.18,Wunderground v.1.15,2013-09-26 03:18:00,
2013-09-25 23:23:00,60.3,58.0,29.87,SE,140,0.0,1.0,92,0.00,,,2.18,Wunderground v.1.15,2013-09-26 03:23:00,
2013-09-25 23:28:00,60.2,57.9,29.87,ESE,113,2.0,5.0,92,0.00,,,2.18,Wunderground v.1.15,2013-09-26 03:28:00,
2013-09-25 23:33:00,60.2,57.9,29.87,SE,146,6.0,6.0,92,0.00,,,2.18,Wunderground v.1.15,2013-09-26 03:33:00,
2013-09-25 23:38:00,60.1,57.8,29.87,East,98,1.0,7.0,92,0.00,,,2.18,Wunderground v.1.15,2013-09-26 03:38:00,
2013-09-25 23:43:00,60.1,57.8,29.87,SE,146,0.0,2.0,92,0.00,,,2.18,Wunderground v.1.15,2013-09-26 03:43:00,
2013-09-25 23:48:00,60.1,57.8,29.87,SE,130,0.0,7.0,92,0.00,,,2.18,Wunderground v.1.15,2013-09-26 03:48:00,
2013-09-25 23:53:00,60.0,57.7,29.87,ESE,118,0.0,6.0,92,0.00,,,2.18,Wunderground v.1.15,2013-09-26 03:53:00,
2013-09-25 23:58:00,60.0,57.7,29.87,South,173,2.0,6.0,92,0.00,,,2.18,Wunderground v.1.15,2013-09-26 03:58:00,